Notices

What's New in latest Release from April 7th, 2021:

- Updated Glossary, including Speed of Maximum Gust, and Total Hourly Precipitation

- Updated national and regional climate services offices contacts and prices information

- Addition of station inventory lists for 1981-2010, 1971-2000, and 1961-1990 Normals.

If you haven't already, please take our survey and provide feedback about our website: https://eccc.sondage-survey.ca/f/LanguageSelection.aspx?s=442ca660-fcf1-47c0-95a9-59707d6fd709

Hourly Data Report for January 15, 2021

SHEARWATER RCS
NOVA SCOTIA
Current Station Operator: ECCC - MSC

44°37'47.000" N
63°30'48.000" W
24.00 m
8205092
71264
AAW

Download Data

Hourly Data (January 2021)
Hourly Data Report for January 15, 2021
TIME
LST
Temp Definition
°C
Dew Point Definition
°C
Rel Hum Definition
%
Precip. Amount Definition
mm

Wind Dir Definition
10's deg

Wind Spd Definition
km/h
Visibility Definition
km
Stn Press Definition
kPa
Hmdx Definition


Wind Chill Definition


Weather Definition


00:00 1.9 1.4 97 0.2 3 9   100.94     LegendNANA
01:00 1.9 1.4 97 0.0 3 10   100.92     LegendNANA
02:00 1.7 1.2 96 0.0 3 11   100.92     LegendNANA
03:00 1.5 1.0 96 0.2 3 10   100.94     LegendNANA
04:00 1.2 0.6 96 0.0 2 9   100.95     LegendNANA
05:00 1.2 0.6 96 0.0 2 10   101.00     LegendNANA
06:00 1.2 0.5 95 0.0 2 10   101.07     LegendNANA
07:00 1.2 0.4 94 0.0 1 11   101.12     LegendNANA
08:00 1.2 0.3 94 0.0 35 9   101.18     LegendNANA
09:00 1.2 -0.1 90 0.0 36 10   101.25     LegendNANA
10:00 1.2 -0.6 88 0.0 35 12   101.34     LegendNANA
11:00 1.3 -1.0 84 0.0 36 13   101.36     LegendNANA
12:00 2.2 -0.7 82 0.0 35 14   101.31     LegendNANA
13:00 2.6 -1.8 73 0.0 34 21   101.29     LegendNANA
14:00 2.3 -2.7 70 0.0 35 20   101.34     LegendNANA
15:00 1.1 -4.2 68 0.0 36 22   101.48     LegendNANA
16:00 0.5 -3.6 74 0.0 34 18   101.60     LegendNANA
17:00 0.3 -3.5 75 0.0 33 11   101.64     LegendNANA
18:00 0.4 -3.7 74 0.0 33 9   101.71     LegendNANA
19:00 -0.3 -4.0 76 0.0 33 9   101.76   -3 LegendNANA
20:00 -1.1 -4.0 81 0.0 35 10   101.80   -5 LegendNANA
21:00 -1.5 -4.0 83 0.0 35 11   101.80   -5 LegendNANA
22:00 -2.1 -4.1 86 0.0 2 10   101.83   -6 LegendNANA
23:00 -2.6 -4.3 88 0.0 35 9   101.80   -6 LegendNANA

Notes on Data Quality.

Legend

  • E = Estimated
  • M = Missing
  • NA = Not Available*
  • [empty] = Indicates an unobserved value
Date modified: